Location: Huntsville
(41.2590°N, 111.7678°W)
Time: 07:08:41
(UTC+00:00)

Vanguard 3 - Pass Details

Date: 15 June 2021
Orbit: 508 x 3261 km, 33.4° (Epoch: 29 July)

Event Time Altitude Azimuth Distance (km) Brightness Sun altitude
Rises 15:56:16 0° 230° (SW) 2,690 9.5 42.7°
Reaches altitude 10° 15:58:28 10° 216° (SW) 1,925 9.0 43.1°
Maximum altitude 16:02:05 27° 158° (SSE) 1,394 9.0 43.8°
Drops below altitude 10° 16:07:10 10° 103° (ESE) 2,762 10.9 44.7°
Sets 16:11:00 0° 93° (E) 4,175 11.5 45.4°
